Dania, FL

6:49 AM EST on December 07, 2016 (GMT -0500)
Fort Lauderdale-Hollywood International

Weather History for KFLL - March, 2014

Change the Weather History Date:

Tuesday, March 25, 2014

  Actual Average Record
Temperature  
Mean Temperature 74 °F 74 °F  
Max Temperature 85 °F 81 °F 90 °F (1952)
Min Temperature 63 °F 67 °F 41 °F (1915)
Degree Days  
Heating Degree Days 0 0  
Month to date heating degree days 0 7  
Since 1 July heating degree days 80 109  
Cooling Degree Days 9 9  
Month to date cooling degree days 226 200  
Year to date cooling degree days 614 556  
Growing Degree Days 25 (Base 50)    
Moisture  
Dew Point 67 °F    
Average Humidity 78    
Maximum Humidity 100    
Minimum Humidity 55    
Precipitation  
Precipitation 0.09 in 0.11 in 0.97 in (1925)
Month to date precipitation 2.27 2.63  
Year to date precipitation 7.78 9.22  
Snow  
Snow 0.00 in - - ()
Month to date snowfall 0.0  
Since 1 July snowfall 0.0  
Snow Depth 0.00 in    
Sea Level Pressure  
Sea Level Pressure 29.91 in    
Wind  
Wind Speed 10 mph (West)    
Max Wind Speed 23 mph    
Max Gust Speed 30 mph    
Visibility 10 miles    
Events Rain    
T = Trace of Precipitation, MM = Missing Value Source: NWS Daily Summary

Daily Weather History Graph

Daily Weather History Graph

Search for Another Location

Airport or City:

Trip Planner

Search our weather history database for the weather conditions in past years. The results will help you decide how hot, cold, wet, or windy it might be!

Date:

Astronomy

Mar. 25, 2014 Rise Set
Actual Time 7:19 AM EDT 7:34 PM EDT
Civil Twilight 6:56 AM EDT 7:57 PM EDT
Nautical Twilight 6:29 AM EDT 8:24 PM EDT
Astronomical Twilight 6:02 AM EDT 8:51 PM EDT
Moon 3:10 AM EDT (3/25) 2:30 PM EDT (3/25)
Length of Visible Light 13h 01m
Length of Day
12h 15m
Waning Crescent, 32% of the Moon is Illuminated
Mar 25
Waning Crescent
Mar 30
New
Apr 7
First Quarter
Apr 15
Full
Apr 22
Last Quarter

Hourly Weather History & Observations

Time (EDT) Temp. Heat Index Dew Point Humidity Pressure Visibility Wind Dir Wind Speed Gust Speed Precip Events Conditions
12:53 AM 68.0 °F - 66.0 °F 93% 29.99 in 7.0 mi NW 11.5 mph - 0.04 in Rain Rain
1:53 AM 66.9 °F - 66.9 °F 100% 29.98 in 9.0 mi West 5.8 mph - 0.04 in Rain Light Rain
2:53 AM 66.9 °F - 66.9 °F 100% 29.92 in 10.0 mi South 3.5 mph - 0.00 in   Scattered Clouds
3:53 AM 66.9 °F - 66.9 °F 100% 29.88 in 9.0 mi ESE 3.5 mph - 0.00 in Rain Light Rain
4:53 AM 68.0 °F - 66.9 °F 96% 29.86 in 10.0 mi Calm Calm - 0.01 in Rain Light Rain
5:53 AM 68.0 °F - 66.9 °F 96% 29.91 in 9.0 mi SW 3.5 mph - 0.01 in Rain Light Rain
6:53 AM 68.0 °F - 66.9 °F 96% 29.93 in 9.0 mi SSW 4.6 mph - 0.01 in   Overcast
7:53 AM 66.9 °F - 66.0 °F 97% 29.92 in 9.0 mi South 8.1 mph - 0.03 in Rain Light Rain
8:53 AM 68.0 °F - 66.9 °F 96% 29.91 in 10.0 mi Variable 5.8 mph - 0.00 in   Mostly Cloudy
9:53 AM 70.0 °F - 68.0 °F 93% 29.92 in 10.0 mi SW 10.4 mph - N/A   Overcast
10:53 AM 73.0 °F - 70.0 °F 90% 29.94 in 10.0 mi SW 8.1 mph - 0.00 in   Mostly Cloudy
11:53 AM 75.9 °F - 68.0 °F 76% 29.92 in 10.0 mi SW 15.0 mph - N/A   Mostly Cloudy
12:49 PM 78.8 °F - 69.8 °F 74% 29.90 in 10.0 mi WSW 16.1 mph 25.3 mph N/A   Mostly Cloudy
12:53 PM 80.1 °F 82.9 °F 69.1 °F 69% 29.90 in 10.0 mi WSW 15.0 mph - N/A   Mostly Cloudy
1:39 PM 81.0 °F 84.4 °F 70.0 °F 69% 29.88 in 10.0 mi WSW 13.8 mph - N/A   Scattered Clouds
1:53 PM 81.0 °F 84.1 °F 69.1 °F 67% 29.87 in 10.0 mi WSW 16.1 mph 25.3 mph N/A   Scattered Clouds
2:53 PM 84.0 °F 87.8 °F 69.1 °F 61% 29.84 in 10.0 mi West 12.7 mph 20.7 mph N/A   Scattered Clouds
3:53 PM 84.0 °F 87.0 °F 68.0 °F 58% 29.83 in 10.0 mi WSW 19.6 mph 25.3 mph N/A   Mostly Cloudy
4:53 PM 84.0 °F 86.3 °F 66.0 °F 55% 29.83 in 10.0 mi WNW 16.1 mph 31.1 mph 0.00 in   Mostly Cloudy
5:07 PM 79.0 °F - 69.1 °F 72% 29.85 in 10.0 mi NNW 16.1 mph 27.6 mph N/A   Scattered Clouds
5:53 PM 78.1 °F - 70.0 °F 76% 29.86 in 10.0 mi NW 11.5 mph - N/A   Scattered Clouds
6:53 PM 79.0 °F - 66.0 °F 64% 29.87 in 10.0 mi WNW 9.2 mph 19.6 mph N/A   Partly Cloudy
7:53 PM 77.0 °F - 66.9 °F 71% 29.90 in 10.0 mi WNW 11.5 mph 18.4 mph N/A   Partly Cloudy
8:53 PM 75.9 °F - 64.9 °F 69% 29.93 in 10.0 mi WNW 12.7 mph 21.9 mph N/A   Partly Cloudy
9:53 PM 72.0 °F - 63.0 °F 73% 29.96 in 10.0 mi WNW 13.8 mph 19.6 mph N/A   Scattered Clouds
10:53 PM 69.1 °F - 53.1 °F 57% 29.99 in 10.0 mi WNW 9.2 mph - N/A   Partly Cloudy
11:53 PM 66.9 °F - 57.0 °F 70% 30.01 in 10.0 mi WNW 12.7 mph 21.9 mph N/A   Clear